Regional Weather Roundup
Issued by NWS

Home | Current Version | Previous Version | Text Only | Print | Product List | Glossary Off
Versions: 1 2 3 4 5 6 7 8 9 10 11 12 13 14 15 16 17 18 19 20 21 22 23 24 25 26 27 28 29 30 31 32 33 34 35 36 37 38 39 40 41 42 43 44 45 46 47 48 49 50

885
ASUS43 KMKX 250011
RWRWI

WISCONSIN REGIONAL WEATHER ROUNDUP
NATIONAL WEATHER SERVICE MILWAUKEE/SULLIVAN WI
700 PM CDT TUE MAY 24 2016

NOTE: "FAIR" INDICATES FEW OR NO CLOUDS BELOW 12,000 FEET WITH NO
SIGNIFICANT WEATHER AND/OR OBSTRUCTIONS TO VISIBILITY.

WIZ001-002-006>008-014>016-023>028-250100-
NORTHWEST WISCONSIN

CITY           SKY/WX    TMP DP  RH WIND       PRES   REMARKS
SUPERIOR ARPT  FOG       50  50  99 E8        29.95R VSB 1/4
6HR MIN TEMP:  50; 6HR MAX TEMP:  74;

ASHLAND        CLOUDY    62  58  86 NE8       29.95R
6HR MIN TEMP:  62; 6HR MAX TEMP:  74; 6HR PCP:  0.01;

HAYWARD        CLOUDY    77  59  53 N8        29.92R
6HR MIN TEMP:  73; 6HR MAX TEMP:  80;

SIREN          MOSUNNY   78  51  39 CALM      29.90S
6HR MIN TEMP:  72; 6HR MAX TEMP:  81;

CUMBERLAND     SUNNY     73  52  46 CALM      29.91F
RICE LAKE      SUNNY     78  51  38 W6        29.92F
6HR MIN TEMP:  76; 6HR MAX TEMP:  82;

CHETEK         SUNNY     77  59  53 CALM      29.90F
6HR MIN TEMP:  75; 6HR MAX TEMP:  82;

LADYSMITH      SUNNY     77  56  47 W7        29.93S
6HR MIN TEMP:  73; 6HR MAX TEMP:  80;

EAU CLAIRE     SUNNY     81  50  33 W7        29.89S HX  80
6HR MIN TEMP:  76; 6HR MAX TEMP:  84;

MENOMONIE      CLOUDY    82  48  29 W6        29.89S HX  81
6HR MIN TEMP:  77; 6HR MAX TEMP:  84;

NEW RICHMOND   MOSUNNY   78  49  36 N3        29.90S
6HR MIN TEMP:  76; 6HR MAX TEMP:  82;

OSCEOLA          N/A     79  55  43 CALM      29.92S HAZE
6HR MIN TEMP:  77; 6HR MAX TEMP:  82;

$$

WIZ003>005-009-010-017-018-250100-
NORTH CENTRAL WISCONSIN

CITY           SKY/WX    TMP DP  RH WIND       PRES   REMARKS
MANITOWISH WTR NOT AVBL
ARBOR VITAE    MOSUNNY   72  61  67 N10       29.94R
6HR MIN TEMP:  67; 6HR MAX TEMP:  78; 6HR PCP:  0.07;

WOODRUFF       MOSUNNY   72  61  67 N10       29.94R
6HR MIN TEMP:  67; 6HR MAX TEMP:  78; 6HR PCP:  0.07;

RHINELANDER    MOSUNNY   75  54  47 SW7       29.93R
6HR MIN TEMP:  67; 6HR MAX TEMP:  78; 6HR PCP: TRACE;

EAGLE RIVER      N/A     68  54  60 N7        29.93R
LAND O LAKES   CLOUDY    68  60  74 N6        29.95R
6HR MIN TEMP:  67; 6HR MAX TEMP:  78;

PHILLIPS       PTSUNNY   74  58  55 W5        29.92R
6HR MIN TEMP:  70; 6HR MAX TEMP:  78;

TOMAHAWK       MOSUNNY   75  54  47 SW6       29.93R
6HR MIN TEMP:  70; 6HR MAX TEMP:  77;

MEDFORD        SUNNY     75  58  57 SW3       29.93S
6HR MIN TEMP:  70; 6HR MAX TEMP:  76;

MERRILL        MOSUNNY   76  58  53 W6        29.94R
$$

WIZ029-030-035-036-043>047-250100-
CENTRAL WISCONSIN

CITY           SKY/WX    TMP DP  RH WIND       PRES   REMARKS
WAUSAU         MOSUNNY   79  55  43 W8        29.91R
6HR MIN TEMP:  73; 6HR MAX TEMP:  83;

MOSINEE        MOSUNNY   75  55  50 W7        29.94R
MARSHFIELD     MOSUNNY   79  54  41 W8        29.91S
6HR MIN TEMP:  76; 6HR MAX TEMP:  81;

STEVENS POINT  SUNNY     78  51  39 W5        29.93S
6HR MIN TEMP:  73; 6HR MAX TEMP:  80;

WAUPACA        PTSUNNY   82  55  39 W7        29.91S HX  81
6HR MIN TEMP:  78; 6HR MAX TEMP:  84;

WAUTOMA        MOSUNNY   81  57  43 W8        29.91F HX  81
6HR MIN TEMP:  76; 6HR MAX TEMP:  83;

WISC RAPIDS    SUNNY     80  55  42 W6        29.92F HX  80
6HR MIN TEMP:  75; 6HR MAX TEMP:  83;

CAMP DOUGLAS   NOT AVBL
$$

WIZ011>013-019>022-031-037>040-048>050-250100-
NORTHEAST WISCONSIN

CITY           SKY/WX    TMP DP  RH WIND       PRES   REMARKS
ANTIGO         MOSUNNY   73  57  57 W10       29.95R
6HR MIN TEMP:  68; 6HR MAX TEMP:  76;

SHAWANO        PTSUNNY   80  59  48 NW6       29.91R HX  81
6HR MIN TEMP:  71; 6HR MAX TEMP:  82; 6HR PCP:  0.10;

OCONTO         MOSUNNY   78  59  51 W6        29.89S
6HR MIN TEMP:  74; 6HR MAX TEMP:  81;

STURGEON BAY   NOT AVBL
GREEN BAY      SUNNY     81  57  43 W6        29.90R HX  81
6HR MIN TEMP:  78; 6HR MAX TEMP:  84;

MANITOWOC      SUNNY     72  59  63 S13       29.92S
6HR MIN TEMP:  66; 6HR MAX TEMP:  76; 6HR PCP:  0.21;

APPLETON       PTSUNNY   79  54  41 SW8       29.90S
CLINTONVILLE   PTSUNNY   79  52  38 W5        29.90S
OSHKOSH        SUNNY     79  57  46 SW5       29.90F HX  80
6HR MIN TEMP:  76; 6HR MAX TEMP:  82; 6HR PCP: TRACE;

$$

WIZ032>034-041-042-053>061-250100-
SOUTHWEST WISCONSIN

CITY           SKY/WX    TMP DP  RH WIND       PRES   REMARKS
LA CROSSE      SUNNY     82  57  42 SE3       29.89F HX  82
6HR MIN TEMP:  78; 6HR MAX TEMP:  84;

SPARTA         SUNNY     80  56  44 CALM      29.92S HX  80
6HR MIN TEMP:  76; 6HR MAX TEMP:  82;

VIROQUA        SUNNY     80  54  40 CALM      29.94R HX  80
6HR MIN TEMP:  76; 6HR MAX TEMP:  82;

BOSCOBEL       SUNNY     84  57  39 CALM      29.90S HX  83
6HR MIN TEMP:  80; 6HR MAX TEMP:  86;

PRAIRIE DU CHI SUNNY     82  57  42 CALM      29.89R HX  81
6HR MIN TEMP:  79; 6HR MAX TEMP:  84;

PLATTEVILLE    CLOUDY    82  60  48 W5        29.92S HX  82
6HR MIN TEMP:  74; 6HR MAX TEMP:  83;

$$

WIZ056-057-062-063-064-067-068-250100-
SOUTH CENTRAL WISCONSIN

CITY           SKY/WX    TMP DP  RH WIND       PRES   REMARKS
REEDSBURG      SUNNY     80  58  48 SW6       29.92S HX  80
6HR MIN TEMP:  79; 6HR MAX TEMP:  83;

BARABOO/DELLS  SUNNY     80  55  41 W7        29.92S HX  80
6HR MIN TEMP:  79; 6HR MAX TEMP:  83;

LONE ROCK      MOSUNNY   82  58  43 NW3       29.91S HX  82
6HR MIN TEMP:  79; 6HR MAX TEMP:  85;

MINERAL POINT  MOSUNNY   81  55  41 SW5       29.93R HX  80
MADISON        PTSUNNY   81  60  48 VRB3      29.91F HX  82
6HR MIN TEMP:  74; 6HR MAX TEMP:  82; 6HR PCP: TRACE;

MIDDLETON      SUNNY     80  59  47 W3        29.92S HX  81
6HR MIN TEMP:  76; 6HR MAX TEMP:  83;

WATERTOWN      PTSUNNY   81  61  50 W6        29.91S HX  82
MONROE         MOSUNNY   81  57  44 NW5       29.92S HX  81
JANESVILLE     NOT AVBL
$$

WIZ051-052-058>065-066-070>072-250100-
SOUTHEAST WISCONSIN

CITY           SKY/WX    TMP DP  RH WIND       PRES   REMARKS
MILWAUKEE      CLOUDY    72  60  66 NE7       29.92R
6HR MIN TEMP:  72; 6HR MAX TEMP:  85;

WAUKESHA       PTSUNNY   79  59  50 W5        29.94S HX  80
MILWAUKEE/TIMM CLOUDY    79  55  44 E6        29.92S
RACINE         CLOUDY    70  49  47 S6        29.94R
6HR MIN TEMP:  70; 6HR MAX TEMP:  84;

BURLINGTON     MOSUNNY   79  55  42 SW15      29.94R
6HR MIN TEMP:  79; 6HR MAX TEMP:  86;

KENOSHA        MOSUNNY   82  52  35 SW7       29.92R HX  81
6HR MIN TEMP:  82; 6HR MAX TEMP:  86;

FOND DU LAC    MOSUNNY   79  61  53 W6        29.91F HX  80
6HR MIN TEMP:  73; 6HR MAX TEMP:  83; 6HR PCP:  0.02;

SHEBOYGAN      MOSUNNY   71  59  65 S3        29.92F
6HR MIN TEMP:  71; 6HR MAX TEMP:  82; 6HR PCP:  0.03;

WEST BEND      MOSUNNY   79  55  44 W6        29.92S
JUNEAU         SUNNY     79  59  51 W9        29.93S HX  80
6HR MIN TEMP:  70; 6HR MAX TEMP:  81;

$$

LSZ147-162-250100-
LAKE SUPERIOR

STATION/POSITION TIME  TEMP    WIND        PRES    WAVE
                       AIR SEA DIR/SP/G            HT/PER
                 (UTC) (F)     (DEG/KT/KT) (MB)    (FT/S)
W MID LAKE BUOY  2350   42 38   40/ 12/ 14 1015.2R   1/ 3
DEVILS ISLAND    2300   48      60/ 14/ 17 1014.3R
SAXON HARBOR     2300   49      CALM  /  2 1013.2
$$

LMZ867-665-643>646-250100-
LAKE MICHIGAN

STATION/POSITION TIME  TEMP    WIND        PRES    WAVE
                       AIR SEA DIR/SP/G            HT/PER
                 (UTC) (F)     (DEG/KT/KT) (MB)    (FT/S)
CHAMBERS ISLAND  2300   63      70/  6/ 11 1012.9R
N MID LAKE BUOY  2350   52 44  180/  4/  4 1013.6F   2/ 4
NORTHPORT PIER   0000   54     150/  6/ 13 1013.2R
SISTER BAY       2304   67     110/  5/  8   N/A
ALGOMA LAKESHORE 2302          200/ 10/ 12   N/A
KEWAUNEE LAKESHO 2300   56                 1011.7
SHEBOYGAN LAC1F1C2F2C3F3C4F4C5F5C6F6C7F7C8M1C9M2Ca!



USA.gov is the U.S. government's official web portal to all federal, state and local government web resources and services.